GW3962 Weather Reports


Display with metric or nautical units.
time (UTC)temp
F
wind
direction
speed
MPH
gust
MPH
rain 1hr
in
rain 24hr
in
rain mn
in
humidity
%
barometer
mb
20260904225550 91 210 6.0 8.0 0.00 0.00 0.00 41 1013.2
20260904225046 91 241 3.0 3.0 0.00 0.00 0.00 43 1013.5
20260904224540 91 228 5.0 8.0 0.00 0.00 0.00 44 1013.2
20260904224035 91 212 10.0 11.0 0.00 0.00 0.00 46 1013.1
20260904223533 91 210 6.0 7.0 0.00 0.00 0.00 46 1013.3
20260904223030 91 201 8.0 10.0 0.00 0.00 0.00 48 1013.5
20260904222525 92 207 8.0 10.0 0.00 0.00 0.00 48 1013.2
20260904222020 91 201 6.0 7.0 0.00 0.00 0.00 48 1013.5
20260904221514 92 216 8.0 9.0 0.00 0.00 0.00 48 1013.5
20260904221009 93 261 6.0 9.0 0.00 0.00 0.00 46 1013.4
20260904220509 93 172 4.0 6.0 0.00 0.00 0.00 46 1013.4
20260904220005 92 181 9.0 13.0 0.00 0.00 0.00 45 1013.5
20260904215459 92 192 5.0 7.0 0.00 0.00 0.00 44 1013.6
20260904214955 92 133 8.0 10.0 0.00 0.00 0.00 45 1013.6
20260904214450 91 203 3.0 5.0 0.00 0.00 0.00 46 1013.6
20260904213945 91 118 7.0 9.0 0.00 0.00 0.00 47 1013.5
20260904213438 91 270 4.0 7.0 0.00 0.00 0.00 46 1013.7
20260904212935 92 181 9.0 11.0 0.00 0.00 0.00 44 1013.8
20260904212434 94 184 6.0 9.0 0.00 0.00 0.00 44 1013.7
20260904211929 92 168 5.0 8.0 0.00 0.00 0.00 45 1013.7
20260904211424 92 177 5.0 6.0 0.00 0.00 0.00 48 1014.1
20260904210920 91 43 6.0 8.0 0.00 0.00 0.00 48 1013.6
20260904210419 91 113 7.0 8.0 0.00 0.00 0.00 48 1014.0
20260904205914 91 200 6.0 8.0 0.00 0.00 0.00 51 1014.0
20260904205410 92 202 9.0 13.0 0.00 0.00 0.00 54 1014.0
20260904204907 92 185 6.0 7.0 0.00 0.00 0.00 53 1014.1
20260904204403 92 181 6.0 8.0 0.00 0.00 0.00 50 1014.2
20260904203859 91 193 8.0 9.0 0.00 0.00 0.00 51 1014.0
20260904203355 92 193 7.0 10.0 0.00 0.00 0.00 49 1014.3
20260904202850 91 130 5.0 8.0 0.00 0.00 0.00 50 1014.3
20260904202346 90 177 8.0 9.0 0.00 0.00 0.00 55 1014.4
20260904201842 91 179 9.0 10.0 0.00 0.00 0.00 52 1014.3
20260904201342 90 181 5.0 7.0 0.00 0.00 0.00 55 1014.3
20260904200837 90 79 9.0 10.0 0.00 0.00 0.00 58 1014.5
20260904200336 91 136 10.0 11.0 0.00 0.00 0.00 54 1014.5
20260904195836 90 179 6.0 11.0 0.00 0.00 0.00 58 1014.8
20260904195334 90 133 6.0 8.0 0.00 0.00 0.00 57 1014.6
20260904194829 91 218 6.0 8.0 0.00 0.00 0.00 58 1014.6
20260904194328 90 302 2.0 2.0 0.00 0.00 0.00 60 1014.7
20260904193823 90 204 6.0 7.0 0.00 0.00 0.00 60 1014.6
20260904193319 91 118 6.0 8.0 0.00 0.00 0.00 58 1014.9
20260904192814 90 71 7.0 11.0 0.00 0.00 0.00 58 1014.9
20260904192309 89 151 7.0 9.0 0.00 0.00 0.00 61 1015.0
20260904191806 89 205 9.0 10.0 0.00 0.00 0.00 61 1015.0
20260904191302 89 110 6.0 8.0 0.00 0.00 0.00 61 1015.0
20260904190758 90 155 7.0 10.0 0.00 0.00 0.00 59 1015.1
20260904190254 89 199 6.0 8.0 0.00 0.00 0.00 59 1015.2
20260904185750 88 216 6.0 9.0 0.00 0.00 0.00 63 1015.3
20260904185245 88 215 7.0 8.0 0.00 0.00 0.00 64 1015.4
20260904184744 88 190 7.0 8.0 0.00 0.00 0.00 64 1015.5
20260904184241 88 222 5.0 5.0 0.00 0.00 0.00 63 1015.8
20260904183736 87 158 6.0 8.0 0.00 0.00 0.00 63 1015.5
20260904183231 87 178 5.0 7.0 0.00 0.00 0.00 65 1015.6
20260904182726 88 187 5.0 7.0 0.00 0.00 0.00 63 1015.4
20260904182221 87 217 6.0 8.0 0.00 0.00 0.00 63 1015.3
20260904181717 87 203 11.0 13.0 0.00 0.00 0.00 64 1015.4
20260904181216 87 175 11.0 13.0 0.00 0.00 0.00 63 1015.7
20260904180711 87 237 6.0 7.0 0.00 0.00 0.00 65 1015.8
20260904180206 87 230 10.0 11.0 0.00 0.00 0.00 65 1015.7
20260904175705 88 174 7.0 9.0 0.00 0.00 0.00 64 1015.8
20260904175204 88 144 5.0 7.0 0.00 0.00 0.00 66 1015.7
20260904174658 87 252 5.0 7.0 0.00 0.00 0.00 63 1015.8
20260904174155 88 276 6.0 9.0 0.00 0.00 0.00 61 1016.1
20260904173651 87 191 7.0 8.0 0.00 0.00 0.00 66 1015.9
20260904173151 87 201 11.0 13.0 0.00 0.00 0.00 62 1015.9
20260904172647 87 197 7.0 10.0 0.00 0.00 0.00 64 1015.9
20260904172146 88 214 7.0 9.0 0.00 0.00 0.00 67 1016.1
20260904171642 88 145 5.0 7.0 0.00 0.00 0.00 67 1016.1
20260904171137 87 228 4.0 5.0 0.00 0.00 0.00 66 1016.3
20260904170633 86 179 6.0 7.0 0.00 0.00 0.00 69 1016.4
20260904170129 87 175 9.0 14.0 0.00 0.00 0.00 67 1016.3
20260904165627 87 202 6.0 8.0 0.00 0.00 0.00 70 1016.3
20260904165121 86 217 4.0 5.0 0.00 0.00 0.00 72 1016.1
20260904164621 86 215 6.0 7.0 0.00 0.00 0.00 72 1016.1
20260904164117 85 267 3.0 3.0 0.00 0.00 0.00 73 1016.2
20260904163612 85 243 7.0 8.0 0.00 0.00 0.00 74 1016.1
20260904163108 85 249 3.0 3.0 0.00 0.00 0.00 74 1016.1
20260904162602 84 201 7.0 9.0 0.00 0.00 0.00 76 1016.2
20260904162057 85 210 8.0 10.0 0.00 0.00 0.00 76 1016.2
20260904161552 84 216 7.0 9.0 0.00 0.00 0.00 77 1016.2
20260904161047 84 191 7.0 9.0 0.00 0.00 0.00 76 1016.3
20260904160542 83 263 4.0 7.0 0.00 0.00 0.00 79 1016.2
20260904160038 83 231 4.0 5.0 0.00 0.00 0.00 79 1016.5
20260904155537 83 210 6.0 7.0 0.00 0.00 0.00 79 1016.2
20260904155032 82 175 8.0 9.0 0.00 0.00 0.00 81 1015.8
20260904154526 82 214 8.0 10.0 0.00 0.00 0.00 82 1016.2
20260904154020 82 214 8.0 10.0 0.00 0.00 0.00 83 1015.8
20260904153520 81 183 9.0 11.0 0.00 0.00 0.00 84 1016.1
20260904153017 81 215 9.0 11.0 0.00 0.00 0.00 85 1015.8
20260904152512 81 221 6.0 9.0 0.00 0.00 0.00 85 1015.9
20260904152007 80 234 9.0 11.0 0.00 0.00 0.00 85 1015.7
20260904151502 80 223 8.0 9.0 0.00 0.00 0.00 87 1015.7
20260904150956 80 210 9.0 10.0 0.00 0.00 0.00 87 1015.6
20260904150451 79 234 8.0 11.0 0.00 0.00 0.00 88 1015.6
20260904145949 79 284 5.0 7.0 0.00 0.00 0.00 89 1015.5
20260904145445 79 218 4.0 6.0 0.00 0.00 0.00 89 1015.8
20260904144941 79 207 7.0 10.0 0.00 0.00 0.00 90 1016.2
20260904144436 79 210 6.0 8.0 0.00 0.00 0.00 90 1015.9
20260904143932 79 214 6.0 7.0 0.00 0.00 0.00 90 1015.7
20260904143428 79 212 4.0 8.0 0.00 0.00 0.00 90 1015.8
20260904142925 79 262 5.0 8.0 0.00 0.00 0.00 90 1015.9
20260904142421 78 203 8.0 9.0 0.00 0.00 0.00 90 1015.8
20260904141921 78 221 5.0 6.0 0.00 0.00 0.00 91 1015.7
20260904141416 78 218 5.0 7.0 0.00 0.00 0.00 92 1015.8
20260904140912 78 283 4.0 5.0 0.00 0.00 0.00 92 1016.1
20260904140412 78 223 4.0 5.0 0.00 0.00 0.00 92 1015.8
20260904135911 78 267 5.0 6.0 0.00 0.00 0.00 92 1015.8
20260904135406 78 198 6.0 7.0 0.00 0.00 0.00 92 1015.8
20260904134903 78 210 6.0 7.0 0.00 0.00 0.00 92 1015.9
20260904134402 78 227 4.0 6.0 0.00 0.00 0.00 92 1015.9
20260904133901 78 221 3.0 5.0 0.00 0.00 0.00 92 1015.9
20260904133357 78 236 3.0 3.0 0.00 0.00 0.00 92 1015.6
20260904132852 78 229 4.0 5.0 0.00 0.00 0.00 91 1016.1
20260904132348 78 256 3.0 5.0 0.00 0.00 0.00 91 1015.9
20260904131847 78 266 2.0 2.0 0.00 0.00 0.00 91 1015.7
20260904131343 78 243 3.0 3.0 0.00 0.00 0.00 90 1015.8
20260904130838 78 244 2.0 3.0 0.00 0.00 0.00 89 1015.9
20260904130337 78 282 1.0 2.0 0.00 0.00 0.00 89 1015.8
20260904125832 78 272 2.0 2.0 0.00 0.00 0.00 89 1015.7
20260904125329 78 205 8.0 9.0 0.00 0.00 0.00 89 1015.8
20260904124827 78 210 3.0 3.0 0.00 0.00 0.00 89 1015.8
20260904124324 78 206 5.0 6.0 0.00 0.00 0.00 89 1015.8
20260904123819 78 201 3.0 3.0 0.00 0.00 0.00 89 1015.6
20260904123314 78 191 3.0 5.0 0.00 0.00 0.00 89 1015.6
20260904122808 78 223 3.0 3.0 0.00 0.00 0.00 89 1015.5
20260904122306 78 206 3.0 3.0 0.00 0.00 0.00 90 1015.3
20260904121758 78 191 6.0 7.0 0.00 0.00 0.00 90 1015.2
20260904121254 78 247 5.0 6.0 0.00 0.00 0.00 90 1015.0
20260904120751 78 191 4.0 7.0 0.00 0.00 0.00 90 1015.3
20260904120246 78 194 7.0 9.0 0.00 0.00 0.00 90 1015.1
20260904115741 78 176 6.0 7.0 0.00 0.00 0.00 90 1014.8
20260904115236 78 212 7.0 8.0 0.00 0.00 0.00 91 1014.8
20260904114731 78 181 6.0 8.0 0.00 0.00 0.00 91 1014.7
20260904114230 78 134 7.0 8.0 0.00 0.00 0.00 90 1014.6
20260904113726 78 170 5.0 7.0 0.00 0.00 0.00 90 1014.5
20260904113224 78 215 7.0 9.0 0.00 0.00 0.00 90 1014.8
20260904112720 78 202 6.0 8.0 0.00 0.00 0.00 90 1014.6
20260904112215 78 208 5.0 6.0 0.00 0.00 0.00 90 1014.5
20260904111711 78 192 5.0 6.0 0.00 0.00 0.00 90 1014.2
20260904111206 78 182 9.0 10.0 0.00 0.00 0.00 90 1014.5
20260904110702 78 206 7.0 9.0 0.00 0.00 0.00 90 1014.3
20260904110201 78 183 6.0 8.0 0.00 0.00 0.00 90 1014.3
20260904105656 78 210 8.0 9.0 0.00 0.00 0.00 90 1014.3
20260904105151 78 200 7.0 8.0 0.00 0.00 0.00 90 1014.5
20260904104646 78 182 6.0 8.0 0.00 0.00 0.00 90 1014.4
20260904104142 78 258 7.0 8.0 0.00 0.00 0.00 90 1014.2
20260904103638 78 228 5.0 6.0 0.00 0.00 0.00 90 1014.3
20260904103133 78 209 7.0 8.0 0.00 0.00 0.00 89 1014.1
20260904102630 78 195 9.0 13.0 0.00 0.00 0.00 89 1014.3
20260904102124 78 219 6.0 7.0 0.00 0.00 0.00 89 1014.0
20260904101621 78 181 5.0 7.0 0.00 0.00 0.00 89 1014.1
20260904101116 78 207 5.0 6.0 0.00 0.00 0.00 89 1014.1
20260904100612 78 238 7.0 8.0 0.00 0.00 0.00 89 1014.0
20260904100107 78 207 7.0 9.0 0.00 0.00 0.00 89 1013.8
20260904095602 78 188 7.0 9.0 0.00 0.00 0.00 89 1014.0
20260904095056 78 209 3.0 5.0 0.00 0.00 0.00 89 1013.9
20260904094551 78 222 6.0 7.0 0.00 0.00 0.00 89 1014.1
20260904094046 78 200 6.0 8.0 0.00 0.00 0.00 88 1014.0
20260904093543 78 223 9.0 11.0 0.00 0.00 0.00 89 1014.0
20260904093043 78 229 5.0 8.0 0.00 0.00 0.00 88 1013.8
20260904092539 78 233 6.0 7.0 0.00 0.00 0.00 88 1013.8
20260904092035 79 250 7.0 9.0 0.00 0.00 0.00 88 1013.7
20260904091531 79 205 7.0 9.0 0.00 0.00 0.00 88 1013.9
20260904091030 79 215 8.0 11.0 0.00 0.00 0.00 88 1014.0
20260904090526 79 223 7.0 9.0 0.00 0.00 0.00 88 1014.0
20260904090022 79 207 11.0 15.0 0.00 0.00 0.00 88 1013.8
20260904085517 79 224 11.0 13.0 0.00 0.00 0.00 88 1013.8
20260904085016 79 206 8.0 8.0 0.00 0.00 0.00 87 1013.9
20260904084512 79 221 7.0 8.0 0.00 0.00 0.00 87 1013.8
20260904084008 79 237 7.0 7.0 0.00 0.00 0.00 87 1013.8
20260904083504 79 198 10.0 13.0 0.00 0.00 0.00 87 1014.0
20260904083000 79 216 7.0 9.0 0.00 0.00 0.00 87 1014.0
20260904082454 79 208 10.0 11.0 0.00 0.00 0.00 86 1014.1
20260904081949 79 216 10.0 11.0 0.00 0.00 0.00 87 1014.1
20260904081445 79 200 8.0 9.0 0.00 0.00 0.00 87 1014.0
20260904080940 79 191 10.0 13.0 0.00 0.00 0.00 86 1014.0
20260904080436 79 156 12.0 15.0 0.00 0.00 0.00 86 1014.0
20260904075931 79 216 10.0 11.0 0.00 0.00 0.00 86 1014.1
20260904075427 79 269 6.0 7.0 0.00 0.00 0.00 86 1013.9
20260904074926 79 202 11.0 15.0 0.00 0.00 0.00 86 1013.8
20260904074421 79 195 9.0 10.0 0.00 0.00 0.00 86 1014.1
20260904073916 79 202 11.0 14.0 0.00 0.00 0.00 86 1014.3
20260904073412 79 184 8.0 9.0 0.00 0.00 0.00 86 1014.0
20260904072908 79 195 11.0 11.0 0.00 0.00 0.00 86 1013.9
20260904072403 79 207 10.0 11.0 0.00 0.00 0.00 86 1013.8
20260904071858 79 208 10.0 11.0 0.00 0.00 0.00 86 1014.0
20260904071353 79 195 10.0 11.0 0.00 0.00 0.00 86 1014.3
20260904070848 79 244 9.0 10.0 0.00 0.00 0.00 86 1014.1
20260904070346 79 179 9.0 10.0 0.00 0.00 0.00 86 1014.2
20260904065842 79 200 10.0 13.0 0.00 0.00 0.00 85 1014.1
20260904065338 79 210 9.0 13.0 0.00 0.00 0.00 85 1014.3
20260904064832 79 214 9.0 11.0 0.00 0.00 0.00 85 1014.4
20260904064328 79 165 11.0 13.0 0.00 0.00 0.00 85 1014.5
20260904063824 79 189 8.0 14.0 0.00 0.00 0.00 85 1014.3
20260904063320 79 193 11.0 13.0 0.00 0.00 0.00 85 1014.3
20260904062815 79 222 11.0 14.0 0.00 0.00 0.00 85 1014.4
20260904062311 79 232 12.0 14.0 0.00 0.00 0.00 84 1014.2
20260904061807 79 191 11.0 13.0 0.00 0.00 0.00 84 1014.4
20260904061303 79 210 10.0 15.0 0.00 0.00 0.00 84 1014.2
20260904060759 79 197 12.0 14.0 0.00 0.00 0.00 84 1014.3
20260904060255 80 196 12.0 15.0 0.00 0.00 0.00 84 1014.4
20260904055750 80 202 11.0 13.0 0.00 0.00 0.00 83 1014.2
20260904055250 80 217 8.0 9.0 0.00 0.00 0.00 83 1014.3
20260904054745 80 210 9.0 13.0 0.00 0.00 0.00 83 1014.4
20260904054241 80 215 10.0 11.0 0.00 0.00 0.00 83 1014.3
20260904053736 80 197 7.0 9.0 0.00 0.00 0.00 83 1014.3
20260904053231 80 198 8.0 11.0 0.00 0.00 0.00 83 1014.4
20260904052728 80 201 7.0 9.0 0.00 0.00 0.00 83 1014.1
20260904052223 80 222 9.0 11.0 0.00 0.00 0.00 82 1014.1
20260904051719 80 198 10.0 11.0 0.00 0.00 0.00 82 1014.0
20260904051214 80 185 5.0 7.0 0.00 0.00 0.00 82 1014.0
20260904050715 80 179 5.0 8.0 0.00 0.00 0.00 82 1014.1
20260904050211 80 201 6.0 7.0 0.00 0.00 0.00 82 1014.0
20260904045711 80 181 9.0 13.0 0.00 0.00 0.00 82 1013.9
20260904045206 80 161 8.0 10.0 0.00 0.00 0.00 81 1014.0
20260904044701 80 148 10.0 11.0 0.00 0.00 0.00 81 1014.2
20260904044157 80 173 11.0 11.0 0.00 0.00 0.00 81 1014.0
20260904043654 80 187 7.0 9.0 0.00 0.00 0.00 81 1014.2
20260904043149 80 193 14.0 16.0 0.00 0.00 0.00 81 1014.0
20260904042645 80 188 7.0 7.0 0.00 0.00 0.00 81 1013.9
20260904042140 80 190 6.0 9.0 0.00 0.00 0.00 81 1014.1
20260904041635 80 181 7.0 9.0 0.00 0.00 0.00 81 1013.9
20260904041132 80 191 5.0 7.0 0.00 0.00 0.00 81 1014.2
20260904040628 80 179 7.0 8.0 0.00 0.00 0.00 80 1013.9
20260904040123 80 201 6.0 9.0 0.00 0.00 0.00 80 1014.2
20260904035619 80 127 7.0 9.0 0.00 0.00 0.00 80 1013.7
20260904035118 80 219 11.0 11.0 0.00 0.00 0.00 80 1013.9
20260904034613 80 173 6.0 8.0 0.00 0.00 0.00 79 1014.0
20260904034108 80 219 3.0 6.0 0.00 0.00 0.00 79 1013.7
20260904033604 80 163 6.0 7.0 0.00 0.00 0.00 79 1014.0
20260904033102 81 171 6.0 8.0 0.00 0.00 0.00 78 1013.8
20260904032602 81 155 9.0 11.0 0.00 0.00 0.00 78 1013.7
20260904032100 81 198 7.0 9.0 0.00 0.00 0.00 78 1013.4
20260904031600 81 185 7.0 9.0 0.00 0.00 0.00 78 1013.6
20260904031056 81 187 5.0 7.0 0.00 0.00 0.00 77 1013.8
20260904030552 81 251 8.0 11.0 0.00 0.00 0.00 77 1013.7
20260904030053 81 158 10.0 13.0 0.00 0.00 0.00 76 1013.8
20260904025548 81 177 5.0 7.0 0.00 0.00 0.00 76 1013.8
20260904025043 81 122 10.0 13.0 0.00 0.00 0.00 76 1013.8
20260904024539 82 123 7.0 10.0 0.00 0.00 0.00 75 1013.8
20260904024034 82 156 6.0 9.0 0.00 0.00 0.00 74 1013.4
20260904023530 82 203 5.0 8.0 0.00 0.00 0.00 73 1013.4
20260904023026 82 191 7.0 9.0 0.00 0.00 0.00 72 1013.2
20260904022521 83 173 12.0 15.0 0.00 0.00 0.00 72 1013.1
20260904022018 83 165 9.0 15.0 0.00 0.00 0.00 72 1013.3
20260904021514 83 169 9.0 11.0 0.00 0.00 0.00 71 1013.0
20260904021009 83 149 10.0 11.0 0.00 0.00 0.00 71 1013.1
20260904020509 83 207 9.0 11.0 0.00 0.00 0.00 71 1013.0
20260904020003 83 102 8.0 15.0 0.00 0.00 0.00 70 1012.6
20260904015458 83 180 8.0 10.0 0.00 0.00 0.00 70 1013.2
20260904014956 83 167 9.0 10.0 0.00 0.00 0.00 70 1012.9
20260904014451 84 214 12.0 15.0 0.00 0.00 0.00 70 1013.2
20260904013947 84 134 9.0 11.0 0.00 0.00 0.00 70 1012.7
20260904013443 84 116 7.0 11.0 0.00 0.00 0.00 70 1012.5
20260904012939 84 124 9.0 13.0 0.00 0.00 0.00 69 1012.6
20260904012438 84 223 11.0 13.0 0.00 0.00 0.00 69 1013.0
20260904011933 84 172 4.0 7.0 0.00 0.00 0.00 69 1012.7
20260904011427 84 130 8.0 9.0 0.00 0.00 0.00 69 1012.5
20260904010922 84 153 11.0 14.0 0.00 0.00 0.00 68 1012.5
20260904010414 85 166 7.0 8.0 0.00 0.00 0.00 68 1012.4
20260904005914 85 194 12.0 15.0 0.00 0.00 0.00 67 1012.3
20260904005409 85 102 9.0 10.0 0.00 0.00 0.00 67 1012.0
20260904004904 86 114 8.0 10.0 0.00 0.00 0.00 67 1012.4
20260904004401 86 266 4.0 5.0 0.00 0.00 0.00 67 1012.4
20260904003900 86 204 11.0 15.0 0.00 0.00 0.00 66 1012.4
20260904003357 86 182 15.0 20.0 0.00 0.00 0.00 66 1012.4
20260904002857 87 195 9.0 11.0 0.00 0.00 0.00 66 1012.4
20260904002353 87 118 8.0 10.0 0.00 0.00 0.00 67 1012.3
20260904001852 87 144 7.0 8.0 0.00 0.00 0.00 66 1012.4
20260904001348 87 119 8.0 10.0 0.00 0.00 0.00 66 1012.3
20260904000843 88 186 5.0 8.0 0.00 0.00 0.00 66 1012.2
20260904000342 88 121 4.0 6.0 0.00 0.00 0.00 66 1012.1
20260903235837 88 97 12.0 18.0 0.00 0.00 0.00 66 1012.1
20260903235333 88 160 10.0 17.0 0.00 0.00 0.00 67 1012.3
20260903234832 88 106 14.0 17.0 0.00 0.00 0.00 66 1012.3
20260903234329 88 114 15.0 18.0 0.00 0.00 0.00 66 1012.4
20260903233825 88 151 10.0 16.0 0.00 0.00 0.00 67 1012.0
20260903233320 88 138 4.0 8.0 0.00 0.00 0.00 67 1012.1
20260903232819 89 204 11.0 18.0 0.00 0.00 0.00 66 1012.0
20260903232316 89 137 8.0 10.0 0.00 0.00 0.00 66 1012.0
20260903231814 89 137 8.0 10.0 0.00 0.00 0.00 66 1012.0
20260903231310 89 146 12.0 16.0 0.00 0.00 0.00 66 1011.9
20260903230805 89 113 9.0 20.0 0.00 0.00 0.00 67 1012.0
20260903230300 90 137 12.0 17.0 0.00 0.00 0.00 67 1011.6